| time (UTC) | temp C | wind direction | speed KPH | gust KPH | rain 1hr cm | rain 24hr cm | rain mn cm | humidity % | barometer mb |
| 20260503212159 | 17 | 230 | 8.0 | 16.1 | 0.00 | 0.00 | 0.00 | 69 | 1013.1 |
| 20260503211659 | 17 | 271 | 6.4 | 16.1 | 0.00 | 0.00 | 0.00 | 69 | 1013.0 |
| 20260503211158 | 17 | 295 | 4.8 | 19.3 | 0.00 | 0.00 | 0.00 | 69 | 1013.1 |
| 20260503210658 | 17 | 214 | 6.4 | 19.3 | 0.00 | 0.00 | 0.00 | 68 | 1013.1 |
| 20260503210159 | 17 | 243 | 3.2 | 14.5 | 0.00 | 0.00 | 0.00 | 69 | 1013.1 |
| 20260503205932 | 17 | 255 | 8.0 | 20.9 | 0.00 | 0.00 | 0.00 | 69 | 1013.1 |
| 20260503205435 | 17 | 312 | 6.4 | 20.9 | 0.00 | 0.00 | 0.00 | 68 | 1013.2 |
| 20260503204658 | 17 | 224 | 3.2 | 16.1 | 0.00 | 0.00 | 0.00 | 69 | 1013.2 |
| 20260503204433 | 17 | 285 | 6.4 | 14.5 | 0.00 | 0.00 | 0.00 | 70 | 1013.3 |
| 20260503203657 | 17 | 230 | 6.4 | 14.5 | 0.00 | 0.00 | 0.00 | 71 | 1013.4 |
| 20260503203157 | 17 | 234 | 4.8 | 16.1 | 0.00 | 0.00 | 0.00 | 71 | 1013.5 |
| 20260503202933 | 17 | 307 | 6.4 | 20.9 | 0.00 | 0.00 | 0.00 | 74 | 1013.5 |
| 20260503202158 | 17 | 204 | 8.0 | 20.9 | 0.00 | 0.00 | 0.00 | 72 | 1013.3 |
| 20260503201658 | 17 | 262 | 4.8 | 14.5 | 0.00 | 0.00 | 0.00 | 73 | 1013.4 |
| 20260503201455 | 17 | 286 | 6.4 | 24.1 | 0.00 | 0.00 | 0.00 | 72 | 1013.5 |
| 20260503201451 | 17 | 245 | 3.2 | 19.3 | 0.00 | 0.00 | 0.00 | 73 | 1013.5 |
| 20260503200157 | 17 | 278 | 6.4 | 24.1 | 0.00 | 0.00 | 0.00 | 71 | 1013.5 |
| 20260503195939 | 17 | 306 | 6.4 | 19.3 | 0.00 | 0.00 | 0.00 | 70 | 1013.4 |
| 20260503195157 | 17 | 336 | 6.4 | 19.3 | 0.00 | 0.00 | 0.00 | 70 | 1013.6 |
| 20260503194940 | 17 | 298 | 6.4 | 17.7 | 0.00 | 0.00 | 0.00 | 69 | 1013.5 |
| 20260503194156 | 17 | 137 | 3.2 | 14.5 | 0.00 | 0.00 | 0.00 | 68 | 1013.6 |
| 20260503193658 | 17 | 250 | 4.8 | 17.7 | 0.00 | 0.00 | 0.00 | 67 | 1013.6 |
| 20260503193159 | 17 | 245 | 3.2 | 17.7 | 0.00 | 0.00 | 0.00 | 67 | 1013.6 |
| 20260503192657 | 17 | 259 | 6.4 | 16.1 | 0.00 | 0.00 | 0.00 | 66 | 1013.6 |
| 20260503192158 | 17 | 245 | 3.2 | 14.5 | 0.00 | 0.00 | 0.00 | 65 | 1013.6 |
| 20260503191657 | 17 | 298 | 6.4 | 14.5 | 0.00 | 0.00 | 0.00 | 64 | 1013.6 |
| 20260503191157 | 18 | 289 | 4.8 | 11.3 | 0.00 | 0.00 | 0.00 | 63 | 1013.6 |
| 20260503190711 | 18 | 278 | 4.8 | 9.7 | 0.00 | 0.00 | 0.00 | 64 | 1013.7 |
| 20260503190704 | 18 | 307 | 4.8 | 11.3 | 0.00 | 0.00 | 0.00 | 63 | 1013.6 |
| 20260503185656 | 17 | 238 | 1.6 | 9.7 | 0.00 | 0.00 | 0.00 | 65 | 1013.6 |
| 20260503185208 | 17 | 272 | 3.2 | 11.3 | 0.00 | 0.00 | 0.00 | 64 | 1013.5 |
| 20260503184714 | 17 | 266 | 1.6 | 9.7 | 0.00 | 0.00 | 0.00 | 63 | 1013.6 |
| 20260503184707 | 17 | 296 | 4.8 | 11.3 | 0.00 | 0.00 | 0.00 | 63 | 1013.7 |
| 20260503183938 | 17 | 299 | 3.2 | 9.7 | 0.00 | 0.00 | 0.00 | 65 | 1013.6 |
| 20260503183155 | 17 | 302 | 4.8 | 9.7 | 0.00 | 0.00 | 0.00 | 63 | 1013.8 |
| 20260503182656 | 16 | 275 | 4.8 | 9.7 | 0.00 | 0.00 | 0.00 | 64 | 1013.8 |
| 20260503182435 | 16 | 185 | 3.2 | 9.7 | 0.00 | 0.00 | 0.00 | 65 | 1013.7 |
| 20260503181655 | 16 | 303 | 4.8 | 11.3 | 0.00 | 0.00 | 0.00 | 65 | 1013.8 |
| 20260503181154 | 16 | 305 | 4.8 | 11.3 | 0.00 | 0.00 | 0.00 | 65 | 1013.9 |
| 20260503180656 | 16 | 279 | 3.2 | 9.7 | 0.00 | 0.00 | 0.00 | 66 | 1013.9 |
| 20260503180156 | 16 | 265 | 4.8 | 11.3 | 0.00 | 0.00 | 0.00 | 66 | 1013.9 |
| 20260503175937 | 16 | 283 | 4.8 | 11.3 | 0.00 | 0.00 | 0.00 | 67 | 1013.9 |
| 20260503175154 | 15 | 261 | 3.2 | 11.3 | 0.00 | 0.00 | 0.00 | 69 | 1013.9 |
| 20260503174934 | 15 | 299 | 3.2 | 9.7 | 0.00 | 0.00 | 0.00 | 68 | 1013.9 |
| 20260503174154 | 15 | 289 | 3.2 | 14.5 | 0.00 | 0.00 | 0.00 | 69 | 1013.8 |
| 20260503173654 | 15 | 307 | 3.2 | 14.5 | 0.00 | 0.00 | 0.00 | 70 | 1013.9 |
| 20260503173154 | 15 | 258 | 4.8 | 11.3 | 0.00 | 0.00 | 0.00 | 70 | 1013.9 |
| 20260503172935 | 15 | 261 | 3.2 | 11.3 | 0.00 | 0.00 | 0.00 | 73 | 1014.0 |
| 20260503172154 | 15 | 282 | 4.8 | 14.5 | 0.00 | 0.00 | 0.00 | 73 | 1013.9 |
| 20260503171654 | 15 | 296 | 4.8 | 14.5 | 0.00 | 0.00 | 0.00 | 74 | 1013.8 |
| 20260503171153 | 15 | 285 | 4.8 | 14.5 | 0.00 | 0.00 | 0.00 | 74 | 1013.9 |
| 20260503170653 | 15 | 244 | 4.8 | 11.3 | 0.00 | 0.00 | 0.00 | 75 | 1013.8 |
| 20260503170155 | 15 | 264 | 3.2 | 14.5 | 0.00 | 0.00 | 0.00 | 77 | 1013.7 |
| 20260503160151 | 13 | 274 | 1.6 | 9.7 | 0.00 | 0.00 | 0.00 | 83 | 1013.4 |
| 20260503150652 | 13 | 312 | 0.0 | 3.2 | 0.00 | 0.00 | 0.00 | 86 | 1013.0 |
| 20260503150150 | 13 | 281 | 0.0 | 4.8 | 0.00 | 0.00 | 0.00 | 87 | 1012.9 |
| 20260503140149 | 12 | 314 | 0.0 | 0.0 | 0.00 | 0.00 | 0.00 | 89 | 1012.5 |
| 20260503131144 | 12 | 314 | 0.0 | 0.0 | 0.00 | 0.00 | 0.00 | 89 | 1012.1 |
| 20260503130922 | 12 | 314 | 0.0 | 1.6 | 0.00 | 0.00 | 0.00 | 89 | 1011.9 |
| 20260503130200 | 12 | 314 | 0.0 | 0.0 | 0.00 | 0.00 | 0.00 | 89 | 1011.9 |
| 20260503130150 | 12 | 314 | 0.0 | 1.6 | 0.00 | 0.00 | 0.00 | 89 | 1011.9 |
| 20260503120126 | 12 | 314 | 0.0 | 0.0 | 0.00 | 0.00 | 0.00 | 88 | 1011.5 |
| 20260503110607 | 12 | 314 | 0.0 | 0.0 | 0.00 | 0.00 | 0.00 | 88 | 1011.7 |
| 20260503110105 | 12 | 314 | 0.0 | 0.0 | 0.00 | 0.00 | 0.00 | 88 | 1011.8 |
| 20260503090315 | 12 | 314 | 0.0 | 3.2 | 0.00 | 0.00 | 0.00 | 87 | 1011.9 |
| 20260503081543 | 12 | 313 | 0.0 | 3.2 | 0.00 | 0.00 | 0.00 | 87 | 1012.4 |
| 20260503081313 | 12 | 313 | 0.0 | 3.2 | 0.00 | 0.00 | 0.00 | 87 | 1012.3 |
| 20260503080546 | 12 | 310 | 1.6 | 3.2 | 0.00 | 0.00 | 0.00 | 87 | 1012.4 |
| 20260503072541 | 13 | 292 | 1.6 | 3.2 | 0.00 | 0.00 | 0.00 | 87 | 1012.4 |
| 20260503072042 | 13 | 292 | 0.0 | 4.8 | 0.00 | 0.00 | 0.00 | 87 | 1012.4 |
| 20260503071541 | 13 | 292 | 3.2 | 4.8 | 0.00 | 0.00 | 0.00 | 87 | 1012.2 |
| 20260503071040 | 13 | 292 | 1.6 | 4.8 | 0.00 | 0.00 | 0.00 | 87 | 1012.2 |
| 20260503070540 | 13 | 292 | 0.0 | 1.6 | 0.00 | 0.00 | 0.00 | 87 | 1012.1 |
| 20260503055041 | 12 | 292 | 0.0 | 4.8 | 0.00 | 0.00 | 0.00 | 88 | 1011.8 |
| 20260503054540 | 12 | 292 | 0.0 | 1.6 | 0.00 | 0.00 | 0.00 | 88 | 1011.8 |
| 20260503054311 | 12 | 292 | 0.0 | 3.2 | 0.00 | 0.00 | 0.00 | 89 | 1011.7 |
| 20260503053539 | 12 | 292 | 1.6 | 3.2 | 0.00 | 0.00 | 0.00 | 89 | 1011.7 |
| 20260503053039 | 12 | 293 | 0.0 | 4.8 | 0.00 | 0.00 | 0.00 | 89 | 1011.8 |
| 20260503052812 | 12 | 293 | 1.6 | 4.8 | 0.00 | 0.00 | 0.00 | 89 | 1011.7 |
| 20260503052308 | 12 | 293 | 1.6 | 3.2 | 0.00 | 0.00 | 0.00 | 89 | 1011.6 |
| 20260503051811 | 12 | 293 | 0.0 | 6.4 | 0.00 | 0.00 | 0.00 | 90 | 1011.7 |
| 20260503051038 | 12 | 293 | 3.2 | 6.4 | 0.00 | 0.00 | 0.00 | 90 | 1011.5 |
| 20260503050538 | 12 | 292 | 1.6 | 6.4 | 0.00 | 0.00 | 0.00 | 89 | 1011.5 |
| 20260503050038 | 12 | 293 | 0.0 | 6.4 | 0.00 | 0.00 | 0.00 | 89 | 1011.5 |
| 20260503045812 | 12 | 293 | 1.6 | 6.4 | 0.00 | 0.00 | 0.00 | 89 | 1011.4 |
| 20260503045037 | 12 | 296 | 3.2 | 6.4 | 0.00 | 0.00 | 0.00 | 89 | 1011.4 |
| 20260503044539 | 12 | 298 | 1.6 | 8.0 | 0.00 | 0.00 | 0.00 | 89 | 1011.3 |
| 20260503044039 | 12 | 299 | 3.2 | 8.0 | 0.00 | 0.00 | 0.00 | 89 | 1011.3 |
| 20260503043539 | 12 | 303 | 3.2 | 4.8 | 0.00 | 0.00 | 0.00 | 89 | 1011.3 |
| 20260503043040 | 12 | 309 | 1.6 | 6.4 | 0.00 | 0.00 | 0.00 | 89 | 1011.3 |
| 20260503042538 | 12 | 295 | 3.2 | 8.0 | 0.00 | 0.00 | 0.00 | 89 | 1011.2 |
| 20260503042054 | 12 | 309 | 1.6 | 4.8 | 0.00 | 0.00 | 0.00 | 88 | 1011.3 |
| 20260503042047 | 12 | 309 | 1.6 | 8.0 | 0.00 | 0.00 | 0.00 | 89 | 1011.3 |
| 20260503041038 | 12 | 31 | 1.6 | 4.8 | 0.00 | 0.00 | 0.00 | 88 | 1011.4 |
| 20260503040536 | 12 | 34 | 1.6 | 4.8 | 0.00 | 0.00 | 0.00 | 88 | 1011.2 |
| 20260503040038 | 12 | 330 | 1.6 | 4.8 | 0.00 | 0.00 | 0.00 | 88 | 1011.2 |
| 20260503035538 | 12 | 345 | 0.0 | 3.2 | 0.00 | 0.00 | 0.00 | 88 | 1011.3 |
| 20260503035037 | 12 | 345 | 0.0 | 4.8 | 0.00 | 0.00 | 0.00 | 87 | 1011.3 |
| 20260503034538 | 12 | 347 | 0.0 | 4.8 | 0.00 | 0.00 | 0.00 | 87 | 1011.1 |
| 20260503034311 | 12 | 0 | 0.0 | 3.2 | 0.00 | 0.00 | 0.00 | 87 | 1011.0 |
| 20260503033537 | 12 | 0 | 0.0 | 3.2 | 0.00 | 0.00 | 0.00 | 87 | 1011.0 |
| 20260503033330 | 12 | 0 | 0.0 | 3.2 | 0.00 | 0.00 | 0.00 | 86 | 1011.0 |
| 20260503032538 | 13 | 337 | 0.0 | 3.2 | 0.00 | 0.00 | 0.00 | 86 | 1011.0 |
| 20260503032037 | 13 | 316 | 0.0 | 4.8 | 0.00 | 0.00 | 0.00 | 86 | 1011.0 |
| 20260503031817 | 13 | 298 | 0.0 | 4.8 | 0.00 | 0.00 | 0.00 | 86 | 1011.2 |
| 20260503031317 | 13 | 298 | 0.0 | 3.2 | 0.00 | 0.00 | 0.00 | 87 | 1011.1 |
| 20260503030537 | 13 | 281 | 0.0 | 1.6 | 0.00 | 0.00 | 0.00 | 87 | 1011.0 |
| 20260503030036 | 13 | 281 | 0.0 | 3.2 | 0.00 | 0.00 | 0.00 | 87 | 1010.8 |
| 20260503025537 | 13 | 281 | 0.0 | 3.2 | 0.00 | 0.00 | 0.00 | 87 | 1010.7 |
| 20260503025036 | 13 | 281 | 0.0 | 6.4 | 0.00 | 0.00 | 0.00 | 86 | 1010.8 |
| 20260503024537 | 13 | 281 | 0.0 | 6.4 | 0.00 | 0.00 | 0.00 | 86 | 1010.8 |
| 20260503024315 | 13 | 265 | 0.0 | 4.8 | 0.00 | 0.00 | 0.00 | 85 | 1010.7 |
| 20260503023537 | 13 | 244 | 1.6 | 9.7 | 0.00 | 0.00 | 0.00 | 85 | 1010.5 |
| 20260503023036 | 13 | 288 | 1.6 | 9.7 | 0.00 | 0.00 | 0.00 | 84 | 1010.5 |
| 20260503022536 | 14 | 282 | 3.2 | 8.0 | 0.00 | 0.00 | 0.00 | 83 | 1010.6 |
| 20260503022035 | 14 | 292 | 3.2 | 8.0 | 0.00 | 0.00 | 0.00 | 83 | 1010.5 |
| 20260503021534 | 15 | 272 | 3.2 | 8.0 | 0.00 | 0.00 | 0.00 | 82 | 1010.5 |
| 20260503021034 | 15 | 272 | 3.2 | 11.3 | 0.00 | 0.00 | 0.00 | 81 | 1010.6 |
| 20260503020534 | 15 | 286 | 6.4 | 11.3 | 0.00 | 0.00 | 0.00 | 80 | 1010.6 |
| 20260503020034 | 15 | 274 | 1.6 | 9.7 | 0.00 | 0.00 | 0.00 | 80 | 1010.6 |
| 20260503015828 | 15 | 285 | 3.2 | 11.3 | 0.00 | 0.00 | 0.00 | 80 | 1010.6 |
| 20260503015318 | 15 | 281 | 3.2 | 11.3 | 0.00 | 0.00 | 0.00 | 79 | 1010.6 |
| 20260503014534 | 15 | 269 | 6.4 | 14.5 | 0.00 | 0.00 | 0.00 | 78 | 1010.7 |
| 20260503014034 | 15 | 224 | 3.2 | 14.5 | 0.00 | 0.00 | 0.00 | 78 | 1010.8 |
| 20260503013534 | 15 | 251 | 6.4 | 11.3 | 0.00 | 0.00 | 0.00 | 77 | 1010.7 |
| 20260503013035 | 15 | 303 | 6.4 | 14.5 | 0.00 | 0.00 | 0.00 | 77 | 1010.6 |
| 20260503012552 | 16 | 282 | 3.2 | 8.0 | 0.00 | 0.00 | 0.00 | 78 | 1010.8 |
| 20260503012545 | 16 | 286 | 1.6 | 14.5 | 0.00 | 0.00 | 0.00 | 77 | 1010.7 |
| 20260503011533 | 16 | 245 | 3.2 | 11.3 | 0.00 | 0.00 | 0.00 | 78 | 1010.8 |
| 20260503011033 | 16 | 264 | 6.4 | 14.5 | 0.00 | 0.00 | 0.00 | 77 | 1010.7 |
| 20260503010533 | 16 | 247 | 6.4 | 14.5 | 0.00 | 0.00 | 0.00 | 77 | 1010.7 |
| 20260503010033 | 16 | 285 | 6.4 | 14.5 | 0.00 | 0.00 | 0.00 | 76 | 1010.8 |
| 20260503005532 | 16 | 289 | 4.8 | 11.3 | 0.00 | 0.00 | 0.00 | 76 | 1010.9 |
| 20260503005032 | 16 | 292 | 3.2 | 14.5 | 0.00 | 0.00 | 0.00 | 75 | 1010.9 |
| 20260503004534 | 16 | 271 | 6.4 | 14.5 | 0.00 | 0.00 | 0.00 | 74 | 1010.8 |
| 20260503004313 | 16 | 219 | 4.8 | 16.1 | 0.00 | 0.00 | 0.00 | 74 | 1010.9 |
| 20260503003535 | 17 | 279 | 6.4 | 16.1 | 0.00 | 0.00 | 0.00 | 73 | 1010.9 |
| 20260503003315 | 17 | 283 | 6.4 | 16.1 | 0.00 | 0.00 | 0.00 | 73 | 1010.8 |
| 20260503002533 | 17 | 285 | 4.8 | 16.1 | 0.00 | 0.00 | 0.00 | 73 | 1010.8 |
| 20260503002034 | 17 | 271 | 1.6 | 9.7 | 0.00 | 0.00 | 0.00 | 75 | 1010.9 |
| 20260503001533 | 17 | 299 | 6.4 | 14.5 | 0.00 | 0.00 | 0.00 | 75 | 1010.8 |
| 20260503001032 | 17 | 303 | 6.4 | 16.1 | 0.00 | 0.00 | 0.00 | 74 | 1010.8 |
| 20260503000532 | 17 | 305 | 4.8 | 16.1 | 0.00 | 0.00 | 0.00 | 73 | 1010.8 |
| 20260503000031 | 18 | 251 | 4.8 | 11.3 | 0.00 | 0.00 | 0.00 | 73 | 1010.9 |
| 20260502235531 | 17 | 271 | 4.8 | 14.5 | 0.00 | 0.00 | 0.00 | 73 | 1010.9 |
| 20260502235312 | 17 | 261 | 6.4 | 14.5 | 0.00 | 0.00 | 0.00 | 73 | 1010.9 |
| 20260502234531 | 17 | 286 | 4.8 | 11.3 | 0.00 | 0.00 | 0.00 | 73 | 1010.9 |
| 20260502234032 | 17 | 254 | 3.2 | 14.5 | 0.00 | 0.00 | 0.00 | 74 | 1010.9 |
| 20260502233531 | 17 | 231 | 8.0 | 14.5 | 0.00 | 0.00 | 0.00 | 72 | 1010.9 |
| 20260502233031 | 18 | 309 | 3.2 | 11.3 | 0.00 | 0.00 | 0.00 | 72 | 1010.9 |
| 20260502232546 | 18 | 275 | 6.4 | 11.3 | 0.00 | 0.00 | 0.00 | 72 | 1011.0 |
| 20260502232032 | 18 | 269 | 3.2 | 11.3 | 0.00 | 0.00 | 0.00 | 73 | 1011.1 |
| 20260502231530 | 18 | 290 | 4.8 | 11.3 | 0.00 | 0.00 | 0.00 | 72 | 1011.2 |
| 20260502231312 | 17 | 265 | 1.6 | 11.3 | 0.00 | 0.00 | 0.00 | 74 | 1011.2 |
| 20260502230530 | 17 | 288 | 6.4 | 14.5 | 0.00 | 0.00 | 0.00 | 73 | 1011.3 |
| 20260502230312 | 17 | 243 | 4.8 | 17.7 | 0.00 | 0.00 | 0.00 | 74 | 1011.3 |
| 20260502225532 | 17 | 268 | 6.4 | 17.7 | 0.00 | 0.00 | 0.00 | 73 | 1011.4 |
| 20260502225029 | 17 | 293 | 4.8 | 14.5 | 0.00 | 0.00 | 0.00 | 73 | 1011.4 |
| 20260502224530 | 18 | 314 | 6.4 | 11.3 | 0.00 | 0.00 | 0.00 | 72 | 1011.5 |
| 20260502224030 | 18 | 274 | 4.8 | 11.3 | 0.00 | 0.00 | 0.00 | 72 | 1011.7 |
| 20260502223531 | 18 | 296 | 3.2 | 9.7 | 0.00 | 0.00 | 0.00 | 73 | 1011.7 |
| 20260502223029 | 18 | 295 | 4.8 | 9.7 | 0.00 | 0.00 | 0.00 | 72 | 1011.9 |
| 20260502222529 | 17 | 252 | 3.2 | 9.7 | 0.00 | 0.00 | 0.00 | 72 | 1011.9 |
| 20260502222313 | 17 | 285 | 4.8 | 11.3 | 0.00 | 0.00 | 0.00 | 73 | 1012.1 |
| 20260502221531 | 17 | 259 | 6.4 | 14.5 | 0.00 | 0.00 | 0.00 | 73 | 1012.2 |
| 20260502221029 | 17 | 286 | 6.4 | 14.5 | 0.00 | 0.00 | 0.00 | 74 | 1012.3 |
| 20260502220529 | 17 | 210 | 4.8 | 14.5 | 0.00 | 0.00 | 0.00 | 74 | 1012.3 |
| 20260502220029 | 17 | 278 | 3.2 | 14.5 | 0.00 | 0.00 | 0.00 | 74 | 1012.4 |
| 20260502215531 | 17 | 300 | 6.4 | 11.3 | 0.00 | 0.00 | 0.00 | 73 | 1012.4 |
| 20260502215029 | 17 | 310 | 4.8 | 11.3 | 0.00 | 0.00 | 0.00 | 74 | 1012.5 |
| 20260502214857 | 17 | 292 | 6.4 | 11.3 | 0.00 | 0.00 | 0.00 | 73 | 1012.5 |
| 20260502214028 | 17 | 314 | 3.2 | 9.7 | 0.00 | 0.00 | 0.00 | 74 | 1012.6 |
| 20260502213527 | 17 | 295 | 4.8 | 8.0 | 0.00 | 0.00 | 0.00 | 73 | 1012.8 |
| 20260502213028 | 17 | 257 | 4.8 | 8.0 | 0.00 | 0.00 | 0.00 | 73 | 1012.9 |
| 20260502212528 | 17 | 302 | 4.8 | 9.7 | 0.00 | 0.00 | 0.00 | 73 | 1012.9 |